Volver al catálogo

SL-8 DEB

ActivoLEO
NORAD 21169·DEBRIS·🇷🇺 Russia

Lanzado Feb 12, 1991 desde Plesetsk Cosmodrome

Loading…

Próximos Pases (próximas 24 horas)

TLE

ActualizadoSource: Space-Track

Época: Sep 14, 2026, 13:37 UTC

1 21169U 91009AG  26257.56802762  .00000008  00000-0  19618-3 0  9992
2 21169  73.9961 302.5822 0131013 111.2454  42.1701 12.22908837586056

Sigue SL-8 DEB en tiempo real con AllMySat

Download on the App Store